Showing default

BRITE-PL 2, 40119

Orbit data source: Space-Track

BRITE-PL 2, 40119 is a payload satellite owned by CBK (PL) in SSO that was launched on Tue, 19 Aug 2014 UTC via a CHANG ZHENG 4B launch vehicle from the Taiyaun Space Center, China (TSC). Payload-class satellites include a variety of spacecraft equipped with specific instruments for various scientific and technological missions. These include communications satellites like Starlink; space stations such as the ISS; scientific satellites like the Hubble; Earth observation satellites from companies like Planet Labs, Umbra, and HawkEye 360; GPS; miniature CubeSats for education and research; and military/defense satellites.

Loading next visibility...
Identifier
40119, 2014-049B
Orbit
SSO
Country
Flag of PLPL / POL
Related business
Manufacturer
CBKPL/UTIAS
Mission
Operational Civil Astronomy
Bus & Motor
GNB, Unknown motor
Mass
6.8 kg wet, 6.8 kg dry
Launch date (UTC)
2014-08-19 (11 years ago)
Launch vehicle
CHANG ZHENG 4B
Launch site
Taiyaun Space Center, China (TSC)
Object type
Payload
Rocket body
Debris
Shape & HBR
Box, 0.1 m
Radar Cross Section
0.060 m², Medium (>0.1 m² and < 1m²)

Expand to show TLE details & history
Last TLE update: 1 day ago

TLE from 1 day ago
0 BRITE-PL 2
1 40119U 14049B   25309.28244355  .00002591  00000-0  25202-3 0  9996
2 40119  97.8991  54.9697 0015314 129.5366 230.7209 14.93373128608015
Epoch: 2025-11-05T06:46Z
TLE epoch observation values (Epoch: 2025-11-05T06:46:43.122Z)
Latitude
-0.00007°
Longitude
-91.46731°
Altitude
597.231 km
Speed
7.557 km/s
True Right ascension
03h 39m 52s
True Declination
0° 00' 00"
Sunlit
Object was in full shadow at epoch
Visualization orbit readout
Latitude
Unknown
Longitude
Unknown
Altitude
Unknown
Speed
Unknown
Apparent Right ascension
Unknown
Apparent Declination
Unknown
Sunlit
N/A
Visualization observer readout
Local Sidereal Time
04:46:05
Azimuth
Unknown
Elevation
Unknown
Doppler factor
Unknown
Orbital elements
Apogee altitude
595.112 km
Perigee altitude
573.787 km
Semi-major axis
6,962.587 km
Eccentricity
0.00153
Inclination
97.8991°
RAAN
54.9697°
Arg. of periapsis
129.5366°
True anomaly
230.58523°
Mean anomaly
230.7209°
Eccentric anomaly
230.65305°
Mean motion
3.73583 °/min
Orbital period
96.36 mins
BSTAR
0.00025202
Loading maneuver chart data...
Computing Atmospheric mass density...
Loading historical data...
Loading historical data...
Loading historical data...
Loading historical data...
Loading historical data...
Loading historical data...
Loading historical data...
Other satellites on launch #49 in the year 2014 (2014-08-19 UTC)

Documentation

Showing up to 5 results
|